User: anonymous   Login
Location: Unspecified
(0.0000°N, 0.0000°E)
Time: 10:14:03
(UTC+00:00)
Language:

Tiangong 2 - Orbit

View from above orbital plane
View from above orbital plane
View from above satellite
View from above satellite

Ground track
Ground track

The orbit data is extracted from the following two-line orbital elements,

1 41765U 16057A   18054.84734230  .00003822  00000-0  49716-4 0  9997
2 41765  42.7849 298.4918 0003484 212.8166 198.5071 15.60447702 82271
Epoch (UTC): 23 February 2018 20:20:10
Eccentricity: 0.0003484
inclination: 42.7849°
perigee height: 384 km
apogee height: 389 km
right ascension of ascending node: 298.4918°
argument of perigee: 212.8166°
revolutions per day: 15.60447702
mean anomaly at epoch: 198.5071°
orbit number at epoch: 8227

The dashed part of the orbit path shows where the satellite is in the earth's shadow,  

DLR